Regional Weather Roundup
Issued by NWS Albany, NY

Home | Current Version | Previous Version | Text Only | Print | Product List | Glossary On
Versions: 1 2 3 4 5 6 7 8 9 10 11 12 13 14 15 16 17 18 19 20 21 22 23 24 25 26 27 28 29 30 31 32 33 34 35 36 37 38 39 40 41 42 43 44 45 46 47 48 49 50
000
ASUS41 KALY 290910
RWRALY

NEW YORK STATE HOURLY WEATHER ROUNDUP
NATIONAL WEATHER SERVICE ALBANY NY
500 AM EDT FRI AUG 29 2014

NOTE: "FAIR" INDICATES FEW OR NO CLOUDS BELOW 12,000 FEET WITH NO
SIGNIFICANT WEATHER AND/OR NO OBSTRUCTIONS TO VISIBILITY.

NYZ032-033-038>043-046>054-057>066-NYZ062>081-291000-
EAST


CITY           SKY/WX    TMP DP  RH WIND       PRES   REMARKS
ALBANY         CLEAR     52  49  89 CALM      30.12R
GLENS FALLS    CLEAR     58  50  75 NW9       30.11R
POUGHKEEPSIE   CLEAR     51  48  89 CALM      30.11R
MONTGOMERY     CLEAR     49  47  93 CALM      30.12R
WHITE PLAINS   CLEAR     58  49  72 CALM      30.09R
ISLIP          CLEAR     62  52  69 N6        30.07R
NEW YORK CITY  CLEAR     65  51  60 NE8       30.10R
CENTRAL PARK   CLEAR     63  49  60 CALM      30.13R
$$

NYZ005>009-017-018-044>046-055-056-291000-
CENTRAL


CITY           SKY/WX    TMP DP  RH WIND       PRES   REMARKS
FULTON         CLEAR     49  47  93 CALM      30.15R
SYRACUSE       PTCLDY    53  51  93 CALM      30.14S
ROME           CLEAR     48  47  96 CALM      30.16S
ELMIRA         PTCLDY    47  47 100 W3        30.16S
BINGHAMTON     CLEAR     49  47  93 CALM      30.15R
MONTICELLO     CLEAR     46  45  93 CALM      30.15R
$$

NYZ026>034-041>043-291000-
NORTH


CITY           SKY/WX    TMP DP  RH WIND       PRES   REMARKS
WATERTOWN      CLEAR     48  44  86 E3        30.15R
FORT DRUM      NOT AVBL
MASSENA        CLEAR     50  50 100 SW3       30.15R
SARANAC LAKE   PTCLDY    42  42 100 CALM      30.14R FOG
PLATTSBURGH    CLEAR     52  51  97 CALM      30.11R
$$

NYZ001>004-010>016-019>021-291000-
WEST


CITY           SKY/WX    TMP DP  RH WIND       PRES   REMARKS
BUFFALO        MOCLDY    53  48  83 SE5       30.15S
DUNKIRK        CLOUDY    60  54  80 CALM      30.15S
JAMESTOWN      CLOUDY    50  46  87 S3        30.17S
WELLSVILLE     PTCLDY    46  44  93 CALM      30.19S
ROCHESTER      CLOUDY    51  49  92 CALM      30.16R
PENN YAN       PTCLDY    54  52  93 SW3       30.17R
$$

             KEY
       WCI = WIND CHILL INDEX
       VSB = VISIBILITY
       HX  = HEAT INDEX
$$


USA.gov is the U.S. government's official web portal to all federal, state and local government web resources and services.